Location: ????????
(55.6333°N, 37.7000°E)
Time: 04:33:04
(UTC+00:00)

Cosmos 2237 - Pass Details

Date: 19 May 2025
Orbit: 847 x 854 km, 70.8° (Epoch: 19 June)

Event Time Altitude Azimuth Distance (km) Brightness Sun altitude
Rises 19:22:44 0° 324° (NW) 3,424 9.6 -10.0°
Reaches altitude 10° 19:25:13 10° 328° (NNW) 2,485 8.3 -10.2°
Maximum altitude 19:30:55 67° 51° (NE) 919 4.5 -10.6°
Enters shadow 19:36:07 12° 133° (SE) 2,304 5.9 -10.9°
